Location: Alpine Heights
(32.8181°N, 116.7809°W)
Time: 00:15:46
(UTC+00:00)

Cosmos 1674 Rocket - Pass Details

Date: 14 April 2021
Orbit: 604 x 629 km, 82.5° (Epoch: 14 May)

Event Time Altitude Azimuth Distance (km) Brightness Sun altitude
Exits shadow 12:17:10 - 192° (SSW) 2,562 6.4 -13.1°
Reaches altitude 10° 12:18:42 10° 195° (SSW) 1,944 5.8 -12.8°
Maximum altitude 12:22:58 65° 277° (W) 668 3.5 -12.0°
Drops below altitude 10° 12:27:17 10° 360° (N) 1,968 6.4 -11.1°
Sets 12:29:32 0° 3° (N) 2,880 7.3 -10.7°
